Flag for Western Sahara Weather past 2 weeks in Smara, Western Sahara

Now
84 °F

Sunny.


Feels Like: 83 °F
Forecast: 66 / 97 °F
Wind: 20 mph from Northeast

Location: Laayoune/Hassan Isl

Current Time: Aug 3, 2015 at 7:10:39 PM

Latest Report: Aug 3, 2015 at 6:00 PM


Visibility: 10 mi

Pressure: 30.01 "Hg

Humidity: 40%

Dew point: 57 °F

Location of SmaraLocation

Historic Weather in Smara — Graph

°F

Smara temperature yesterday

Maximum temperature yesterday: 82 °F (at 2:00 PM)
Minimum temperature yesterday: 64 °F (at 6:00 AM)
Average temperature yesterday: 74 °F

Past Weeks' High & Low Weather Summary

 TemperatureHumidityPressure
High91 °F (Jul 22, 2:00 PM)94% (Aug 1, 5:00 AM)30.07 "Hg (Aug 1, 5:00 AM)
Low64 °F (Aug 2, 6:00 AM)33% (Jul 24, 3:00 PM)29.83 "Hg (Jul 20, 6:00 PM)
Average76 °F68%29.95 "Hg
* Reported Jul 19 6:00 PM — Aug 3 6:00 PM, Smara, Weather by CustomWeather, © 2015

Note: Actual official high and low records may vary slightly from our data, if they occured in-between our weather recording intervals... More about our weather records

Advertising

Smara weather history for previous 24 hours

 ConditionsComfort  
Time TempWeatherWind HumidityBarometerVisibility
6:00 PM
Mon, Aug 3
84 °FSunny.20 mph40%30.01 "Hg10 mi
5:00 PM86 °FSunny.20 mph38%30.01 "Hg10 mi
4:00 PM86 °FSunny.18 mph38%30.01 "Hg10 mi
3:00 PM86 °FSunny.18 mph35%30.04 "Hg10 mi
2:00 PM84 °FSunny.16 mph40%30.04 "Hg10 mi
1:00 PM82 °FPassing clouds.16 mph45%30.04 "HgN/A
12:00 PM79 °FPassing clouds.16 mph54%30.07 "HgN/A
11:00 AM77 °FScattered clouds.16 mph57%30.07 "HgN/A
10:00 AM73 °FScattered clouds.15 mph74%30.07 "HgN/A
9:00 AM70 °FPassing clouds.13 mph88%30.04 "HgN/A
8:00 AM66 °FPassing clouds.6 mph94%30.04 "HgN/A
7:00 AM66 °FPassing clouds.5 mph94%30.04 "HgN/A
6:00 AM68 °FClear.6 mph88%30.01 "Hg10 mi
5:00 AM68 °FClear.6 mph88%30.01 "Hg10 mi
4:00 AM68 °FClear.7 mph88%30.01 "Hg10 mi
3:00 AM68 °FClear.8 mph88%30.04 "Hg10 mi
2:00 AM70 °FClear.8 mph83%30.04 "Hg10 mi
1:00 AM72 °FClear.6 mph73%30.04 "Hg10 mi
12:00 AM72 °FClear.7 mph65%30.04 "Hg10 mi
11:00 PM
Sun, Aug 2
73 °FClear.9 mph65%30.04 "Hg10 mi
10:00 PM73 °FClear.10 mph65%30.01 "Hg10 mi
9:00 PM79 °FSunny.12 mph48%29.98 "Hg10 mi
8:00 PM81 °FSunny.13 mph45%29.98 "Hg10 mi
7:00 PM81 °FSunny.16 mph48%29.98 "Hg10 mi
Weather by CustomWeather, © 2015

See weather overviewHow to use our weather pages